Regional Weather Roundup
Issued by NWS

Home | Current Version | Previous Version | Graphics & Text | Print | Product List | Glossary On
Versions: 1 2 3 4 5 6 7 8 9 10 11 12 13 14 15 16 17 18 19 20 21 22 23 24 25 26 27 28 29 30 31 32 33 34 35 36 37 38 39 40 41 42 43 44 45 46 47 48 49 50
000
ASUS43 KBIS 191801
RWRND

NORTH DAKOTA REGIONAL WEATHER ROUNDUP
NATIONAL WEATHER SERVICE BISMARCK ND
100 PM CDT SUN APR 19 2015

NOTE: "FAIR" INDICATES FEW OR NO CLOUDS BELOW 12,000 FEET WITH NO
SIGNIFICANT WEATHER AND/OR OBSTRUCTIONS TO VISIBILITY.


NDZ001>003-009>011-017-191900-
NORTHWEST NORTH DAKOTA

CITY           SKY/WX    TMP DP  RH WIND       PRES   REMARKS
WILLISTON      CLOUDY    45  30  55 N32G43    30.03S
6HR MIN TEMP:  40; 6HR MAX TEMP:  46; 6HR PCP: TRACE;

MINOT          CLOUDY    44  39  82 NW24G32   29.88R
MINOT AFB      PTSUNNY   42  42  99 NW24      29.87S
$$

NDZ018>021-031>035-040>046-191900-
SOUTHWEST NORTH DAKOTA

CITY           SKY/WX    TMP DP  RH WIND       PRES   REMARKS
BISMARCK       PTSUNNY   49  34  56 NW25G39   29.89F
6HR MIN TEMP:  40; 6HR MAX TEMP:  50; 6HR PCP: TRACE;

DICKINSON      CLOUDY    44  32  62 NW29G37   29.96S
GARRISON         N/A     45  37  73 NW30G40   29.89S
6HR MIN TEMP:  35; 6HR MAX TEMP:  47;

HETTINGER ARPT CLOUDY    42  30  62 NW25G37   29.99F
$$

NDZ004>008-012>016-024-026-027-054-191900-
NORTHEAST NORTH DAKOTA

CITY           SKY/WX    TMP DP  RH WIND       PRES   REMARKS
GRAND FORKS    LGT RAIN  46  43  89 NW18      29.69S
GRND FRKS AFB  LGT RAIN  46  42  86 NW17G25   29.69F
DEVILS LAKE    CLOUDY    39  36  87 NW18G30   29.78R
$$

NDZ022-023-025-028>030-036>039-047>053-191900-
SOUTHEAST NORTH DAKOTA

CITY           SKY/WX    TMP DP  RH WIND       PRES   REMARKS
FARGO          CLOUDY    48  40  73 NW25G35   29.71S
6HR MIN TEMP:  45; 6HR MAX TEMP:  49; 6HR PCP:  0.08;

JAMESTOWN      PTSUNNY   50  37  61 NW25G39   29.76S
$$



USA.gov is the U.S. government's official web portal to all federal, state and local government web resources and services.